[[{"header":{"parameterUnit":"m.s-1","parameterCategory":1,"la1":30.2991,"la2":30.254,"lo1":-89.0895,"lo2":-89.0444,"dy":0.0017,"dx":0.0017,"nx":28,"ny":28,"refTime":"2025-11-28T09:00:00:Z","depth":0,"parameterNumber":2,"parameterNumberName":"U-component_of_WINDS"},"data":[0,0,0,0,0,0,0,0,0,0,0,0,0,0,0,0,0,0,0,0,0,0,0,0,0,0,0,0,0,0,0,0,0,0,0,0,0,0,0,0,0,0,0,0,0,0,0,0,0,0,0,0,0,0,0,0,0,0,0.685,0.685,0,0.6832,0.6832,0.6832,0.685,0.6851,0.6851,0.6852,0.683,0.6829,0.6828,0,0,0,0,0,0,0,0,0,0,0,0,0,0.6899,0.6898,0.685,0.685,0.685,0.6832,0.6832,0.6832,0.685,0.6851,0.6852,0.6852,0.6831,0.6829,0.6828,0,0,0,0,0,0,0,0,0,0,0,0,0,0.6879,0.6898,0.685,0.6857,0.6857,0.6832,0.6832,0.6831,0.685,0.6851,0.6852,0.6853,0.6831,0.6829,0.6827,0.6794,0,0,0.6822,0.6821,0,0,0,0,0,0,0,0,0.688,0.6877,0.6856,0.6857,0.6857,0.6845,0.6841,0.6819,0.6849,0.6853,0.6852,0.6853,0.6834,0.6832,0.6826,0.6793,0.6792,0.6822,0.682,0.682,0.6819,0,0,0,0,0,0,0,0.6882,0.6878,0.6843,0.6856,0.6856,0.686,0.6859,0.6837,0.6837,0.6852,0.6854,0.6851,0.6834,0.6828,0.6826,0.6792,0.6822,0.682,0.6819,0.6818,0.673,0.6729,0,0,0,0,0,0,0.6883,0.6879,0.6844,0.6843,0.6872,0.6859,0.6857,0.6847,0.6838,0.6837,0.685,0.6852,0.683,0.6828,0.6825,0.6784,0.682,0.6818,0.6817,0.6731,0.673,0.6729,0,0,0,0,0,0,0.6884,0.6879,0.6844,0.6861,0.6857,0.6857,0.6846,0.6846,0.684,0.6836,0.6836,0.6844,0.6831,0.6827,0.6802,0.6784,0.6817,0.6815,0.6733,0.6731,0.6729,0.6703,0,0,0,0,0,0,0.6885,0.688,0.6867,0.6861,0.6856,0.6822,0.6845,0.6845,0.6837,0.6839,0.683,0.6829,0.6832,0.6804,0.68,0.6782,0.6814,0.6734,0.6732,0.673,0.6706,0.6701,0.6697,0,0,0,0,0,0.6887,0.686,0.6866,0.6862,0.6841,0.6821,0.6818,0.6822,0.6835,0.6822,0.682,0.683,0.6787,0.6802,0.6797,0.6778,0.6735,0.6733,0.673,0.6708,0.6702,0.6697,0,0,0,0,0,0,0.6862,0.6859,0.6866,0.6837,0.6829,0.6824,0.6808,0.6816,0.6803,0.6806,0.6811,0.6809,0.6781,0.6777,0.6793,0.6745,0.6763,0.6759,0.6748,0.6742,0.6738,0.6738,0.6812,0,0,0,0,0,0.6854,0.6839,0.6837,0.6811,0.6807,0.6808,0.6799,0.6804,0.6795,0.6792,0.6788,0.6779,0.6764,0.6753,0.6739,0.6706,0.6704,0.6691,0.6686,0.6683,0.6678,0.666,0.6654,0.672,0.672,0.672,0,0,0.6836,0.6832,0.6822,0.6806,0.68,0.6784,0.6805,0.6786,0.6774,0.6789,0.6764,0.6761,0.6751,0.6722,0.6709,0.6718,0.666,0.6679,0.6676,0.6674,0.6657,0.6651,0.6645,0.6718,0.6718,0.6718,0,0,0.6793,0.679,0.6768,0.6762,0.6754,0.6756,0.675,0.6744,0.6743,0.6719,0.673,0.6715,0.6689,0.6681,0.6674,0.6631,0.6639,0.6627,0.6602,0.6584,0.6579,0.6575,0.6558,0.6552,0.6623,0.6623,0.6623,0,0.6771,0.6747,0.6755,0.6736,0.6728,0.6743,0.672,0.6714,0.6701,0.6696,0.6707,0.6674,0.6669,0.6637,0.6627,0.6621,0.6615,0.6626,0.658,0.6575,0.6571,0.6555,0.6549,0.6621,0.6621,0.6622,0.6622,0,0.672,0.6703,0.6686,0.6675,0.6666,0.6645,0.6649,0.6638,0.6644,0.6644,0.6619,0.6614,0.6599,0.6592,0.6597,0.6562,0.6567,0.6579,0.6597,0.6563,0.6548,0.6542,0.6619,0.662,0.662,0.662,0,0,0.6659,0.6654,0.6647,0.6642,0.6635,0.6622,0.6603,0.6589,0.658,0.6571,0.6554,0.6532,0.6543,0.6535,0.6539,0.6524,0.649,0.6538,0.6538,0.6528,0.6449,0.6439,0.6432,0.6496,0.6495,0.6494,0.645,0,0.6615,0.6581,0.6588,0.6555,0.6539,0.6554,0.6536,0.653,0.653,0.6517,0.6517,0.6501,0.6517,0.6512,0.6498,0.6497,0.6474,0.65,0.6478,0.6477,0.6478,0.6425,0.6414,0.6372,0.6444,0.6443,0.6442,0,0.6559,0.655,0.6515,0.6511,0.6505,0.6489,0.6477,0.6465,0.6458,0.6459,0.6451,0.6459,0.6439,0.6459,0.6431,0.6449,0.6441,0.6439,0.6438,0.6434,0.6456,0.6418,0.6359,0.6352,0.6434,0.6434,0.6435,0,0.6516,0.6495,0.6471,0.6467,0.6462,0.6451,0.6448,0.6443,0.6435,0.6425,0.6419,0.6407,0.6399,0.6389,0.6393,0.6408,0.6364,0.6385,0.6363,0.6363,0.6351,0.6351,0.6288,0.6349,0.6349,0.6349,0.635,0,0.6466,0.6443,0.6452,0.6437,0.6413,0.6421,0.6397,0.6396,0.6391,0.6376,0.6389,0.6374,0.6381,0.6367,0.6371,0.6346,0.6343,0.6343,0.6343,0.634,0.634,0.6333,0.6335,0.6348,0.6348,0.6348,0.6349,0,0.6412,0.6418,0.6393,0.6391,0.6391,0.6372,0.6371,0.6357,0.6359,0.6339,0.6335,0.6338,0.6322,0.6327,0.6309,0.6311,0.628,0.6285,0.6282,0.6283,0.626,0.6261,0.6188,0.6179,0.6248,0.6247,0.6247,0,0.6378,0.6362,0.6359,0.635,0.6347,0.6333,0.6325,0.6334,0.6324,0.6317,0.6303,0.6289,0.6277,0.6252,0.6251,0.6238,0.6242,0.6218,0.624,0.6237,0.624,0.624,0.6238,0.6212,0.6211,0.6211,0.621,0,0.6317,0.6321,0.6309,0.6299,0.6289,0.6281,0.6274,0.6266,0.6274,0.6263,0.6248,0.6239,0.6222,0.6207,0.6196,0.6192,0.6202,0.6204,0.6198,0.6193,0.6191,0.619,0.6268,0.6205,0.6205,0.6206,0.6206,0.6206,0.6271,0.6257,0.6253,0.624,0.6236,0.6229,0.6216,0.6217,0.6205,0.6192,0.6198,0.618,0.6175,0.616,0.6156,0.6142,0.6151,0.6142,0.614,0.6137,0.6133,0.6196,0.614,0.614,0.614,0.614,0.614,0,0.6209,0.6208,0.6196,0.6186,0.6175,0.6188,0.6181,0.6171,0.6155,0.615,0.6139,0.6122,0.6108,0.6108,0.6095,0.6083,0.6088,0.608,0.6079,0.6078,0.6127,0.6132,0.6076,0.6076,0.6076,0.6076,0.6076,0.6076,0.6175,0.6151,0.6155,0.613,0.6129,0.6112,0.6107,0.6101,0.6097,0.6077,0.6066,0.6066,0.6063,0.605,0.6038,0.6039,0.6032,0.6022,0.6024,0.6068,0.6075,0.6081,0.6086,0.6021,0.6021,0.5976,0.5976,0.5976]},{"header":{"parameterUnit":"m.s-1","parameterCategory":1,"la1":30.2991,"la2":30.254,"lo1":-89.0895,"lo2":-89.0444,"dy":0.0017,"dx":0.0017,"nx":28,"ny":28,"refTime":"2025-11-28T09:00:00:Z","depth":0,"parameterNumber":3,"parameterNumberName":"V-component_of_WINDS"},"data":[0,0,0,0,0,0,0,0,0,0,0,0,0,0,0,0,0,0,0,0,0,0,0,0,0,0,0,0,0,0,0,0,0,0,0,0,0,0,0,0,0,0,0,0,0,0,0,0,0,0,0,0,0,0,0,0,0,0,-6.7194,-6.7196,0,-6.7363,-6.7364,-6.7366,-6.7265,-6.726,-6.7255,-6.7251,-6.7417,-6.7426,-6.7435,0,0,0,0,0,0,0,0,0,0,0,0,0,-6.6779,-6.6787,-6.7194,-6.7196,-6.7198,-6.7362,-6.7365,-6.7367,-6.7266,-6.726,-6.7254,-6.7249,-6.7414,-6.7425,-6.7436,0,0,0,0,0,0,0,0,0,0,0,0,0,-6.6954,-6.679,-6.7193,-6.7168,-6.7167,-6.7362,-6.7365,-6.7367,-6.7267,-6.726,-6.7253,-6.7246,-6.7411,-6.7424,-6.7437,-6.7665,0,0,-6.7478,-6.7484,0,0,0,0,0,0,0,0,-6.6945,-6.697,-6.7169,-6.717,-6.7169,-6.7285,-6.7279,-6.7467,-6.7269,-6.7229,-6.7251,-6.7242,-6.7379,-6.7394,-6.7442,-6.7673,-6.768,-6.7479,-6.7487,-6.7493,-6.7497,0,0,0,0,0,0,0,-6.6932,-6.6962,-6.726,-6.7172,-6.7172,-6.7146,-6.7163,-6.7314,-6.7342,-6.7232,-6.7225,-6.7247,-6.7377,-6.7429,-6.7445,-6.7682,-6.7479,-6.7491,-6.7499,-6.7504,-6.8109,-6.8117,0,0,0,0,0,0,-6.6923,-6.6952,-6.7255,-6.7265,-6.7037,-6.7159,-6.7178,-6.7255,-6.734,-6.7346,-6.7253,-6.7241,-6.741,-6.7429,-6.745,-6.7724,-6.7493,-6.7505,-6.7513,-6.8101,-6.8111,-6.8119,0,0,0,0,0,0,-6.6915,-6.6951,-6.7248,-6.7107,-6.7143,-6.7174,-6.7262,-6.7263,-6.7314,-6.7356,-6.736,-6.7301,-6.7405,-6.7431,-6.7613,-6.7728,-6.7512,-6.7524,-6.8092,-6.8104,-6.8115,-6.8272,0,0,0,0,0,0,-6.6903,-6.6949,-6.7037,-6.711,-6.7151,-6.741,-6.7269,-6.7271,-6.7338,-6.7325,-6.7402,-6.7408,-6.7401,-6.7594,-6.7626,-6.7743,-6.7534,-6.8081,-6.8097,-6.8111,-6.8257,-6.8288,-6.8314,0,0,0,0,0,-6.6889,-6.7073,-6.7042,-6.7079,-6.7262,-6.7417,-6.744,-6.743,-6.7348,-6.7436,-6.7463,-6.7406,-6.771,-6.7613,-6.7649,-6.7771,-6.8074,-6.8093,-6.811,-6.8244,-6.8282,-6.8314,0,0,0,0,0,0,-6.701,-6.7082,-6.7048,-6.7262,-6.7335,-6.74,-6.7511,-6.7471,-6.7566,-6.755,-6.7531,-6.755,-6.7739,-6.7773,-6.7663,-6.7996,-6.7879,-6.7905,-6.7968,-6.8004,-6.8033,-6.8021,-6.7545,0,0,0,0,0,-6.7062,-6.7183,-6.7239,-6.7422,-6.746,-6.748,-6.7546,-6.7533,-6.7606,-6.7636,-6.7676,-6.7748,-6.7859,-6.7933,-6.8038,-6.826,-6.8276,-6.8362,-6.8391,-6.8415,-6.8438,-6.8558,-6.8597,-6.8179,-6.8179,-6.8178,0,0,-6.7169,-6.7224,-6.7301,-6.7447,-6.7502,-6.7627,-6.7506,-6.7643,-6.7735,-6.7656,-6.7831,-6.7863,-6.7941,-6.8145,-6.8236,-6.8178,-6.8557,-6.8438,-6.8456,-6.8466,-6.8581,-6.862,-6.8656,-6.8191,-6.8189,-6.8187,0,0,-6.743,-6.7484,-6.7643,-6.7701,-6.7786,-6.7798,-6.7836,-6.7908,-6.7927,-6.8103,-6.8046,-6.8154,-6.8347,-6.8406,-6.8461,-6.8746,-6.8696,-6.878,-6.8932,-6.9049,-6.9082,-6.9112,-6.9214,-6.9251,-6.8803,-6.8803,-6.8803,0,-6.7553,-6.7741,-6.7729,-6.7872,-6.7937,-6.7874,-6.8034,-6.809,-6.8204,-6.825,-6.8184,-6.8426,-6.8474,-6.8691,-6.8761,-6.8807,-6.885,-6.8772,-6.9079,-6.9108,-6.9135,-6.9233,-6.9271,-6.8813,-6.8812,-6.8811,-6.881,0,-6.7888,-6.802,-6.8138,-6.8253,-6.8332,-6.8482,-6.8491,-6.8572,-6.8552,-6.857,-6.875,-6.8806,-6.8922,-6.8972,-6.8952,-6.9186,-6.9148,-6.9081,-6.8963,-6.9185,-6.9276,-6.9313,-6.8827,-6.8823,-6.882,-6.8818,0,0,-6.823,-6.8338,-6.8382,-6.8434,-6.8523,-6.8624,-6.8771,-6.8887,-6.8957,-6.9037,-6.916,-6.9325,-6.9265,-6.9328,-6.9313,-6.9417,-6.964,-6.9337,-6.9339,-6.9393,-6.9902,-6.9953,-6.9996,-6.9607,-6.9614,-6.962,-6.9896,0,-6.8498,-6.8758,-6.8752,-6.8993,-6.9114,-6.9055,-6.9183,-6.9252,-6.9273,-6.9377,-6.9399,-6.9517,-6.9427,-6.9465,-6.9565,-6.9592,-6.9742,-6.9572,-6.9721,-6.9726,-6.9705,-7.0044,-7.0098,-7.0356,-6.9931,-6.9937,-6.9942,0,-6.8845,-6.894,-6.9195,-6.9268,-6.9318,-6.9434,-6.954,-6.9641,-6.9716,-6.9724,-6.9796,-6.9766,-6.9913,-6.9791,-6.9994,-6.9879,-6.9939,-6.9961,-6.9971,-6.9985,-6.9848,-7.0068,-7.0437,-7.0477,-6.9998,-6.9993,-6.9989,0,-6.907,-6.9262,-6.9439,-6.9485,-6.9575,-6.9658,-6.9698,-6.9767,-6.9837,-6.9929,-6.9974,-7.0081,-7.014,-7.0222,-7.0222,-7.0132,-7.0428,-7.0305,-7.0438,-7.0439,-7.0504,-7.05,-7.0889,-7.0541,-7.054,-7.054,-7.0539,0,-6.937,-6.9528,-6.9542,-6.9652,-6.9827,-6.9817,-6.999,-7.0022,-7.0084,-7.0197,-7.0151,-7.0258,-7.025,-7.0357,-7.0357,-7.0526,-7.0552,-7.0562,-7.056,-7.0567,-7.0566,-7.0607,-7.059,-7.055,-7.0548,-7.0546,-7.0544,0,-6.9652,-6.9668,-6.9858,-6.9928,-6.9949,-7.0075,-7.0133,-7.0237,-7.0254,-7.0398,-7.0431,-7.0457,-7.0582,-7.0589,-7.0732,-7.0731,-7.0937,-7.0915,-7.0913,-7.0909,-7.1043,-7.1031,-7.1473,-7.153,-7.1144,-7.1148,-7.1151,0,-6.9844,-6.9964,-7.0048,-7.0122,-7.0168,-7.0287,-7.036,-7.0354,-7.0431,-7.0527,-7.0618,-7.0739,-7.0835,-7.1036,-7.1067,-7.1176,-7.1156,-7.1304,-7.1172,-7.1176,-7.116,-7.1154,-7.1166,-7.133,-7.1334,-7.1337,-7.134,0,-7.0182,-7.0184,-7.0291,-7.0402,-7.0491,-7.0577,-7.0657,-7.0719,-7.0723,-7.0811,-7.094,-7.1015,-7.1162,-7.1282,-7.1388,-7.1427,-7.1386,-7.1381,-7.1418,-7.1427,-7.1422,-7.1428,-7.0984,-7.1371,-7.1368,-7.1366,-7.1364,-7.1363,-7.0425,-7.053,-7.0606,-7.0727,-7.0788,-7.0864,-7.0965,-7.0996,-7.1103,-7.1225,-7.1214,-7.1356,-7.1428,-7.1567,-7.1615,-7.1725,-7.1674,-7.1727,-7.1741,-7.1755,-7.177,-7.1404,-7.1744,-7.1743,-7.1742,-7.1741,-7.1741,0,-7.0762,-7.0808,-7.092,-7.1035,-7.1131,-7.1084,-7.1171,-7.1253,-7.138,-7.1451,-7.1548,-7.1695,-7.1812,-7.1853,-7.1965,-7.2046,-7.2029,-7.2076,-7.207,-7.208,-7.1808,-7.1765,-7.2087,-7.2087,-7.2087,-7.2087,-7.2087,-7.2087,-7.0949,-7.1125,-7.1136,-7.1341,-7.1385,-7.1526,-7.158,-7.165,-7.1707,-7.1875,-7.1973,-7.1999,-7.2059,-7.2176,-7.228,-7.2289,-7.2333,-7.2388,-7.2389,-7.2134,-7.2099,-7.2066,-7.2026,-7.2397,-7.2398,-7.2652,-7.2655,-7.2656]}]]